Time,TemperatureF,DewpointF,PressureIn,WindDirection,WindDirectionDegrees,WindSpeedMPH,WindSpeedGustMPH,Humidity,HourlyPrecipIn,Conditions,Clouds,dailyrainin,SoftwareType,DateUTC
2013-01-06 00:00:00,33.6,25.2,30.22,SW,225,0.0,0.0,71,0.00,,OVC,0.00,VWS V14.00,2013-01-06 05:00:00,
2013-01-06 00:03:00,33.6,25.2,30.22,SW,225,0.0,0.0,71,0.00,,OVC,0.00,VWS V14.00,2013-01-06 05:03:00,
2013-01-06 00:07:00,33.6,25.2,30.23,WSW,248,2.0,2.0,71,0.00,,OVC,0.00,VWS V14.00,2013-01-06 05:07:00,
2013-01-06 00:12:00,33.8,25.1,30.23,SW,225,0.0,0.0,70,0.00,,OVC,0.00,VWS V14.00,2013-01-06 05:12:00,
2013-01-06 00:17:00,33.8,25.4,30.24,SW,225,0.0,0.0,71,0.00,,OVC,0.00,VWS V14.00,2013-01-06 05:17:00,
2013-01-06 00:22:00,33.9,25.5,30.23,SW,225,0.0,0.0,71,0.00,,OVC,0.00,VWS V14.00,2013-01-06 05:22:00,
2013-01-06 00:27:00,33.9,25.5,30.24,SW,225,0.0,0.0,71,0.00,,OVC,0.00,VWS V14.00,2013-01-06 05:27:00,
2013-01-06 00:32:00,34.1,25.7,30.24,WSW,248,0.0,0.0,71,0.00,,OVC,0.00,VWS V14.00,2013-01-06 05:32:00,
2013-01-06 00:37:00,34.1,25.4,30.24,WSW,248,0.0,0.0,70,0.00,,OVC,0.00,VWS V14.00,2013-01-06 05:37:00,
2013-01-06 00:42:00,34.3,25.9,30.23,WSW,248,0.0,0.0,71,0.00,,OVC,0.00,VWS V14.00,2013-01-06 05:42:00,
2013-01-06 00:47:00,34.3,25.5,30.23,WSW,248,0.0,0.0,70,0.00,,OVC,0.00,VWS V14.00,2013-01-06 05:47:00,
2013-01-06 00:52:00,34.3,25.9,30.24,WSW,248,0.0,0.0,71,0.00,,OVC,0.00,VWS V14.00,2013-01-06 05:52:00,
2013-01-06 00:57:00,34.3,25.9,30.24,WSW,248,0.0,0.0,71,0.00,,OVC,0.00,VWS V14.00,2013-01-06 05:57:00,
2013-01-06 01:02:00,34.3,25.9,30.24,WSW,248,0.0,0.0,71,0.00,,OVC,0.00,VWS V14.00,2013-01-06 06:02:00,
2013-01-06 01:07:00,34.3,25.5,30.24,WSW,248,0.0,0.0,70,0.00,,OVC,0.00,VWS V14.00,2013-01-06 06:07:00,
2013-01-06 01:12:00,34.3,25.5,30.24,SW,225,0.0,0.0,70,0.00,,OVC,0.00,VWS V14.00,2013-01-06 06:12:00,
2013-01-06 01:17:00,34.3,25.5,30.24,SW,225,1.7,1.7,70,0.00,,OVC,0.00,VWS V14.00,2013-01-06 06:17:00,
2013-01-06 01:22:00,34.3,25.5,30.24,WSW,248,0.0,0.0,70,0.00,,OVC,0.00,VWS V14.00,2013-01-06 06:22:00,
2013-01-06 01:27:00,34.3,25.2,30.25,West,270,0.0,0.0,69,0.00,,OVC,0.00,VWS V14.00,2013-01-06 06:27:00,
2013-01-06 01:32:00,34.3,25.5,30.25,WSW,248,1.1,1.1,70,0.00,,OVC,0.00,VWS V14.00,2013-01-06 06:32:00,
2013-01-06 01:37:00,34.3,25.5,30.25,WSW,248,0.0,0.0,70,0.00,,OVC,0.00,VWS V14.00,2013-01-06 06:37:00,
2013-01-06 01:42:00,34.3,25.5,30.24,WSW,248,0.0,0.0,70,0.00,,OVC,0.00,VWS V14.00,2013-01-06 06:42:00,
2013-01-06 01:47:00,34.3,25.5,30.24,WSW,248,0.0,0.0,70,0.00,,OVC,0.00,VWS V14.00,2013-01-06 06:47:00,
2013-01-06 01:52:00,34.3,25.2,30.21,WSW,248,0.0,0.0,69,0.00,,OVC,0.00,VWS V14.00,2013-01-06 06:52:00,
2013-01-06 01:57:00,34.3,25.5,30.22,WSW,248,0.0,0.0,70,0.00,,OVC,0.00,VWS V14.00,2013-01-06 06:57:00,
2013-01-06 02:02:00,34.3,25.5,30.23,WSW,248,0.0,0.0,70,0.00,,OVC,0.00,VWS V14.00,2013-01-06 07:02:00,
2013-01-06 02:07:00,34.5,26.1,30.22,WSW,248,0.0,0.0,71,0.00,,OVC,0.00,VWS V14.00,2013-01-06 07:07:00,
2013-01-06 02:12:00,34.3,25.5,30.23,WSW,248,0.0,0.0,70,0.00,,OVC,0.00,VWS V14.00,2013-01-06 07:12:00,
2013-01-06 02:17:00,34.3,25.5,30.22,WSW,248,0.0,0.0,70,0.00,,OVC,0.00,VWS V14.00,2013-01-06 07:17:00,
2013-01-06 02:22:00,34.3,25.5,30.22,WSW,248,0.0,0.0,70,0.00,,OVC,0.00,VWS V14.00,2013-01-06 07:22:00,
2013-01-06 02:27:00,34.3,25.5,30.23,WSW,248,0.0,0.0,70,0.00,,OVC,0.00,VWS V14.00,2013-01-06 07:27:00,
2013-01-06 02:32:00,34.5,25.7,30.22,WSW,248,0.0,0.0,70,0.00,,OVC,0.00,VWS V14.00,2013-01-06 07:32:00,
2013-01-06 02:37:00,34.5,25.7,30.22,WSW,248,0.0,0.0,70,0.00,,OVC,0.00,VWS V14.00,2013-01-06 07:37:00,
2013-01-06 02:42:00,34.7,25.9,30.22,WSW,248,0.0,0.0,70,0.00,,OVC,0.00,VWS V14.00,2013-01-06 07:42:00,
2013-01-06 02:47:00,34.8,26.0,30.22,WSW,248,0.0,0.0,70,0.00,,OVC,0.00,VWS V14.00,2013-01-06 07:47:00,
2013-01-06 02:52:00,34.8,26.0,30.21,SW,225,0.0,0.0,70,0.00,,OVC,0.00,VWS V14.00,2013-01-06 07:52:00,
2013-01-06 02:57:00,34.8,25.7,30.19,SSW,202,0.0,0.0,69,0.00,,OVC,0.00,VWS V14.00,2013-01-06 07:57:00,
2013-01-06 03:02:00,34.7,25.6,30.20,SW,225,0.0,0.0,69,0.00,,OVC,0.00,VWS V14.00,2013-01-06 08:02:00,
2013-01-06 03:07:00,34.7,25.6,30.21,WSW,248,1.1,1.1,69,0.00,,OVC,0.00,VWS V14.00,2013-01-06 08:07:00,
2013-01-06 03:12:00,34.8,25.7,30.20,SW,225,7.3,7.3,69,0.00,,OVC,0.00,VWS V14.00,2013-01-06 08:12:00,
2013-01-06 03:17:00,34.7,25.9,30.20,SW,225,2.9,2.9,70,0.00,,OVC,0.00,VWS V14.00,2013-01-06 08:17:00,
2013-01-06 03:22:00,34.8,26.4,30.19,SW,225,2.6,2.6,71,0.00,,OVC,0.00,VWS V14.00,2013-01-06 08:22:00,
2013-01-06 03:27:00,34.8,27.0,30.19,SW,225,0.6,0.6,73,0.00,,OVC,0.00,VWS V14.00,2013-01-06 08:27:00,
2013-01-06 03:32:00,34.8,27.0,30.18,WSW,248,0.0,0.0,73,0.00,,OVC,0.00,VWS V14.00,2013-01-06 08:32:00,
2013-01-06 03:37:00,34.7,27.3,30.18,WSW,248,0.0,0.0,74,0.00,,OVC,0.00,VWS V14.00,2013-01-06 08:37:00,
2013-01-06 03:42:00,34.7,27.6,30.18,West,270,0.0,0.0,75,0.00,,OVC,0.00,VWS V14.00,2013-01-06 08:42:00,
2013-01-06 03:47:00,34.5,27.7,30.18,WSW,248,0.0,0.0,76,0.00,,OVC,0.00,VWS V14.00,2013-01-06 08:47:00,
2013-01-06 03:52:00,34.5,28.0,30.17,WSW,248,0.0,0.0,77,0.00,,OVC,0.00,VWS V14.00,2013-01-06 08:52:00,
2013-01-06 03:57:00,34.5,28.0,30.17,WSW,248,0.0,0.0,77,0.00,,OVC,0.00,VWS V14.00,2013-01-06 08:57:00,
2013-01-06 04:02:00,34.5,28.4,30.17,WSW,248,0.0,0.0,78,0.00,,OVC,0.00,VWS V14.00,2013-01-06 09:02:00,
2013-01-06 04:07:00,34.5,28.4,30.17,WSW,248,0.0,0.0,78,0.00,,OVC,0.00,VWS V14.00,2013-01-06 09:07:00,
2013-01-06 04:12:00,34.3,28.5,30.16,SW,225,0.0,0.0,79,0.00,,OVC,0.00,VWS V14.00,2013-01-06 09:12:00,
2013-01-06 04:17:00,34.5,28.7,30.16,SW,225,0.0,0.0,79,0.00,,OVC,0.00,VWS V14.00,2013-01-06 09:17:00,
2013-01-06 04:22:00,34.5,29.0,30.16,WSW,248,0.0,0.0,80,0.00,,OVC,0.00,VWS V14.00,2013-01-06 09:22:00,
2013-01-06 04:27:00,34.3,28.8,30.15,SW,225,0.0,0.0,80,0.00,,OVC,0.00,VWS V14.00,2013-01-06 09:27:00,
2013-01-06 04:32:00,34.5,29.0,30.16,SW,225,0.0,0.0,80,0.00,,OVC,0.00,VWS V14.00,2013-01-06 09:32:00,
2013-01-06 04:37:00,34.5,29.0,30.15,SW,225,0.0,0.0,80,0.00,,OVC,0.00,VWS V14.00,2013-01-06 09:37:00,
2013-01-06 04:42:00,34.7,29.2,30.15,SW,225,0.0,0.0,80,0.00,,OVC,0.00,VWS V14.00,2013-01-06 09:42:00,
2013-01-06 04:47:00,34.7,29.5,30.15,SW,225,0.0,0.0,81,0.00,,OVC,0.00,VWS V14.00,2013-01-06 09:47:00,
2013-01-06 04:53:00,34.7,29.5,30.16,SW,225,0.0,0.0,81,0.00,,OVC,0.00,VWS V14.00,2013-01-06 09:53:00,
2013-01-06 04:58:00,34.5,29.3,30.15,SW,225,0.0,0.0,81,0.00,,OVC,0.00,VWS V14.00,2013-01-06 09:58:00,
2013-01-06 05:02:00,34.5,29.3,30.15,SW,225,0.0,0.0,81,0.00,,OVC,0.00,VWS V14.00,2013-01-06 10:02:00,
2013-01-06 05:08:00,34.5,29.6,30.15,SW,225,0.0,0.0,82,0.00,,OVC,0.00,VWS V14.00,2013-01-06 10:08:00,
2013-01-06 05:13:00,34.7,29.8,30.14,SW,225,0.0,0.0,82,0.00,,OVC,0.00,VWS V14.00,2013-01-06 10:13:00,
2013-01-06 05:18:00,34.7,29.8,30.14,SW,225,0.0,0.0,82,0.00,,OVC,0.00,VWS V14.00,2013-01-06 10:18:00,
2013-01-06 05:23:00,34.7,29.8,30.14,SW,225,0.0,0.0,82,0.00,,OVC,0.00,VWS V14.00,2013-01-06 10:23:00,
2013-01-06 05:27:00,34.5,29.6,30.14,SW,225,0.0,0.0,82,0.00,,OVC,0.00,VWS V14.00,2013-01-06 10:27:00,
2013-01-06 05:32:00,34.3,29.7,30.14,SSW,202,0.0,0.0,83,0.00,,OVC,0.00,VWS V14.00,2013-01-06 10:32:00,
2013-01-06 05:37:00,34.3,29.7,30.13,SSW,202,0.0,0.0,83,0.00,,OVC,0.00,VWS V14.00,2013-01-06 10:37:00,
2013-01-06 05:42:00,34.5,29.9,30.14,SW,225,0.0,0.0,83,0.00,,OVC,0.00,VWS V14.00,2013-01-06 10:42:00,
2013-01-06 05:47:00,34.5,29.9,30.14,WSW,248,0.0,0.0,83,0.00,,OVC,0.00,VWS V14.00,2013-01-06 10:47:00,
2013-01-06 05:52:00,34.5,29.9,30.14,SW,225,0.6,0.6,83,0.00,,OVC,0.00,VWS V14.00,2013-01-06 10:52:00,
2013-01-06 05:57:00,34.5,29.9,30.14,SW,225,0.0,0.0,83,0.00,,OVC,0.00,VWS V14.00,2013-01-06 10:57:00,
2013-01-06 06:02:00,34.3,29.7,30.13,SW,225,0.0,0.0,83,0.00,,OVC,0.00,VWS V14.00,2013-01-06 11:02:00,
2013-01-06 06:07:00,34.3,29.7,30.13,SW,225,0.0,0.0,83,0.00,,OVC,0.00,VWS V14.00,2013-01-06 11:07:00,
2013-01-06 06:12:00,34.3,29.7,30.13,SW,225,0.0,0.0,83,0.00,,OVC,0.00,VWS V14.00,2013-01-06 11:12:00,
2013-01-06 06:17:00,34.5,30.2,30.13,SW,225,0.0,0.0,84,0.00,,OVC,0.00,VWS V14.00,2013-01-06 11:17:00,
2013-01-06 06:22:00,34.5,30.2,30.13,SW,225,0.0,0.0,84,0.00,,OVC,0.00,VWS V14.00,2013-01-06 11:22:00,
2013-01-06 06:27:00,34.5,30.2,30.12,SSW,202,0.0,0.0,84,0.00,,OVC,0.00,VWS V14.00,2013-01-06 11:27:00,
2013-01-06 06:32:00,34.7,30.4,30.12,SSW,202,0.0,0.0,84,0.00,,OVC,0.00,VWS V14.00,2013-01-06 11:32:00,
2013-01-06 06:37:00,34.7,30.4,30.13,SSW,202,0.0,0.0,84,0.00,,OVC,0.00,VWS V14.00,2013-01-06 11:37:00,
2013-01-06 06:42:00,34.7,30.4,30.13,SSW,202,0.0,0.0,84,0.00,,OVC,0.00,VWS V14.00,2013-01-06 11:42:00,
2013-01-06 06:47:00,34.5,30.2,30.13,SSW,202,0.0,0.0,84,0.00,,OVC,0.00,VWS V14.00,2013-01-06 11:47:00,
2013-01-06 06:52:00,34.7,30.4,30.13,SSW,202,0.0,0.0,84,0.00,,OVC,0.00,VWS V14.00,2013-01-06 11:52:00,
2013-01-06 06:57:00,34.7,30.7,30.13,SW,225,0.0,0.0,85,0.00,,OVC,0.00,VWS V14.00,2013-01-06 11:57:00,
2013-01-06 07:02:00,34.7,30.7,30.13,SW,225,0.0,0.0,85,0.00,,OVC,0.00,VWS V14.00,2013-01-06 12:02:00,
2013-01-06 07:07:00,34.5,30.5,30.13,SW,225,0.0,0.0,85,0.00,,OVC,0.00,VWS V14.00,2013-01-06 12:07:00,
2013-01-06 07:12:00,34.5,30.5,30.13,SW,225,0.0,0.0,85,0.00,,OVC,0.00,VWS V14.00,2013-01-06 12:12:00,
2013-01-06 07:17:00,34.7,30.7,30.13,SW,225,0.0,0.0,85,0.00,,OVC,0.00,VWS V14.00,2013-01-06 12:17:00,
2013-01-06 07:22:00,34.5,30.5,30.12,SW,225,0.0,0.0,85,0.00,,OVC,0.00,VWS V14.00,2013-01-06 12:22:00,
2013-01-06 07:27:00,34.7,30.7,30.13,SW,225,0.0,0.0,85,0.00,,OVC,0.00,VWS V14.00,2013-01-06 12:27:00,
2013-01-06 07:32:00,34.7,30.7,30.12,SW,225,0.0,0.0,85,0.00,,OVC,0.00,VWS V14.00,2013-01-06 12:32:00,
2013-01-06 07:37:00,34.7,30.7,30.13,SW,225,0.0,0.0,85,0.00,,OVC,0.00,VWS V14.00,2013-01-06 12:37:00,
2013-01-06 07:42:00,34.8,30.8,30.13,SW,225,0.0,0.0,85,0.00,,OVC,0.00,VWS V14.00,2013-01-06 12:42:00,
2013-01-06 07:47:00,34.8,30.8,30.13,SW,225,0.0,0.0,85,0.00,,OVC,0.00,VWS V14.00,2013-01-06 12:47:00,
2013-01-06 07:52:00,34.8,30.8,30.13,SW,225,0.0,0.0,85,0.00,,OVC,0.00,VWS V14.00,2013-01-06 12:52:00,
2013-01-06 07:57:00,35.2,31.4,30.13,SW,225,0.0,0.0,86,0.00,,OVC,0.00,VWS V14.00,2013-01-06 12:57:00,
2013-01-06 08:02:00,35.2,31.4,30.13,SW,225,0.0,0.0,86,0.00,,OVC,0.00,VWS V14.00,2013-01-06 13:02:00,
2013-01-06 08:07:00,35.2,31.1,30.13,SW,225,0.0,0.0,85,0.00,,OVC,0.00,VWS V14.00,2013-01-06 13:07:00,
2013-01-06 08:12:00,35.2,31.1,30.12,North,0,0.0,0.0,85,0.00,,OVC,0.00,VWS V14.00,2013-01-06 13:12:00,
2013-01-06 08:17:00,35.0,31.0,30.13,SW,225,0.0,0.0,85,0.00,,OVC,0.00,VWS V14.00,2013-01-06 13:17:00,
2013-01-06 08:22:00,35.2,31.1,30.13,SW,225,0.0,0.0,85,0.00,,OVC,0.00,VWS V14.00,2013-01-06 13:22:00,
2013-01-06 08:27:00,35.4,31.6,30.12,SW,225,0.0,0.0,86,0.00,,OVC,0.00,VWS V14.00,2013-01-06 13:27:00,
2013-01-06 08:32:00,35.9,31.8,30.13,SW,225,0.0,0.0,85,0.00,,OVC,0.00,VWS V14.00,2013-01-06 13:32:00,
2013-01-06 08:37:00,36.3,32.2,30.13,WSW,248,0.0,0.0,85,0.00,,OVC,0.00,VWS V14.00,2013-01-06 13:37:00,
2013-01-06 08:42:00,37.0,32.9,30.13,West,270,1.1,1.1,85,0.00,,OVC,0.00,VWS V14.00,2013-01-06 13:42:00,
2013-01-06 08:47:00,37.2,33.1,30.13,West,270,0.0,0.0,85,0.00,,OVC,0.00,VWS V14.00,2013-01-06 13:47:00,
2013-01-06 08:52:00,37.5,33.1,30.12,WSW,248,0.0,0.0,84,0.02,,OVC,0.02,VWS V14.00,2013-01-06 13:52:00,
2013-01-06 08:57:00,37.9,33.5,30.12,West,270,0.0,0.0,84,0.02,,OVC,0.02,VWS V14.00,2013-01-06 13:57:00,
2013-01-06 09:02:00,38.4,34.0,30.12,West,270,0.0,0.4,84,0.02,,OVC,0.02,VWS V14.00,2013-01-06 14:02:00,
2013-01-06 09:07:00,38.8,34.1,30.12,West,270,2.4,2.4,83,0.02,,OVC,0.02,VWS V14.00,2013-01-06 14:07:00,
2013-01-06 09:12:00,39.3,34.6,30.12,WNW,292,0.0,0.0,83,0.04,,OVC,0.04,VWS V14.00,2013-01-06 14:12:00,
2013-01-06 09:17:00,39.9,35.2,30.12,WNW,292,0.0,0.0,83,0.04,,OVC,0.04,VWS V14.00,2013-01-06 14:17:00,
2013-01-06 09:22:00,40.2,35.2,30.12,WSW,248,0.0,0.0,82,0.04,,OVC,0.04,VWS V14.00,2013-01-06 14:22:00,
2013-01-06 09:27:00,40.8,35.4,30.12,West,270,0.0,0.0,81,0.04,,OVC,0.04,VWS V14.00,2013-01-06 14:27:00,
2013-01-06 09:32:00,41.1,35.4,30.12,WSW,248,1.3,1.3,80,0.04,,OVC,0.04,VWS V14.00,2013-01-06 14:32:00,
2013-01-06 09:37:00,41.5,35.8,30.12,West,270,0.0,0.0,80,0.04,,OVC,0.04,VWS V14.00,2013-01-06 14:37:00,
2013-01-06 09:42:00,41.7,36.0,30.12,NW,315,0.0,0.0,80,0.04,,OVC,0.04,VWS V14.00,2013-01-06 14:42:00,
2013-01-06 09:47:00,41.7,35.7,30.12,NW,315,0.0,0.0,79,0.04,,OVC,0.04,VWS V14.00,2013-01-06 14:47:00,
2013-01-06 09:52:00,42.4,36.4,30.11,WNW,292,0.0,0.0,79,0.02,,OVC,0.04,VWS V14.00,2013-01-06 14:52:00,
2013-01-06 09:57:00,42.6,36.2,30.11,SW,225,1.1,1.1,78,0.02,,OVC,0.04,VWS V14.00,2013-01-06 14:57:00,
2013-01-06 10:02:00,42.8,36.4,30.11,West,270,0.0,0.0,78,0.02,,OVC,0.04,VWS V14.00,2013-01-06 15:02:00,
2013-01-06 10:07:00,42.9,36.2,30.11,SW,225,0.6,0.6,77,0.02,,OVC,0.04,VWS V14.00,2013-01-06 15:07:00,
2013-01-06 10:12:00,43.1,36.4,30.11,WSW,248,0.0,0.0,77,0.00,,OVC,0.04,VWS V14.00,2013-01-06 15:12:00,
2013-01-06 10:17:00,43.3,36.3,30.11,West,270,2.0,2.0,76,0.00,,OVC,0.04,VWS V14.00,2013-01-06 15:17:00,
2013-01-06 10:22:00,43.5,36.5,30.11,North,0,0.0,0.0,76,0.00,,OVC,0.04,VWS V14.00,2013-01-06 15:22:00,
2013-01-06 10:27:00,43.5,36.5,30.11,SSW,202,5.1,5.1,76,0.00,,OVC,0.04,VWS V14.00,2013-01-06 15:27:00,
2013-01-06 10:32:00,43.1,35.7,30.11,SSW,202,0.0,0.0,75,0.00,,OVC,0.04,VWS V14.00,2013-01-06 15:32:00,
2013-01-06 10:37:00,42.9,35.5,30.11,SSW,202,1.5,1.5,75,0.00,,OVC,0.04,VWS V14.00,2013-01-06 15:37:00,
2013-01-06 10:42:00,43.3,35.9,30.10,WSW,248,2.0,2.0,75,0.00,,OVC,0.04,VWS V14.00,2013-01-06 15:42:00,
2013-01-06 10:47:00,43.7,36.0,30.10,WNW,292,2.9,2.9,74,0.00,,OVC,0.04,VWS V14.00,2013-01-06 15:47:00,
2013-01-06 10:52:00,44.0,36.3,30.09,West,270,2.9,2.9,74,0.00,,OVC,0.04,VWS V14.00,2013-01-06 15:52:00,
2013-01-06 10:57:00,44.0,35.9,30.09,West,270,1.7,1.7,73,0.00,,OVC,0.04,VWS V14.00,2013-01-06 15:57:00,
2013-01-06 11:02:00,44.2,36.1,30.09,West,270,2.0,2.0,73,0.00,,OVC,0.04,VWS V14.00,2013-01-06 16:02:00,
2013-01-06 11:07:00,44.7,36.6,30.09,SSW,202,0.8,0.8,73,0.00,,OVC,0.04,VWS V14.00,2013-01-06 16:07:00,
2013-01-06 11:12:00,44.9,36.4,30.08,West,270,0.0,0.0,72,0.00,,OVC,0.04,VWS V14.00,2013-01-06 16:12:00,
2013-01-06 11:17:00,44.9,36.1,30.08,WSW,248,2.0,2.0,71,0.00,,OVC,0.04,VWS V14.00,2013-01-06 16:17:00,
2013-01-06 11:22:00,45.5,36.7,30.08,West,270,1.1,1.1,71,0.00,,OVC,0.04,VWS V14.00,2013-01-06 16:22:00,
2013-01-06 11:27:00,45.6,36.8,30.07,WSW,248,0.0,0.0,71,0.00,,OVC,0.04,VWS V14.00,2013-01-06 16:27:00,
2013-01-06 11:32:00,45.6,36.4,30.06,WSW,248,0.0,0.0,70,0.00,,OVC,0.04,VWS V14.00,2013-01-06 16:32:00,
2013-01-06 11:37:00,46.2,36.6,30.06,NW,315,0.0,0.0,69,0.00,,OVC,0.04,VWS V14.00,2013-01-06 16:37:00,
2013-01-06 11:42:00,46.5,36.9,30.05,SW,225,0.0,0.0,69,0.00,,OVC,0.04,VWS V14.00,2013-01-06 16:42:00,
2013-01-06 11:47:00,46.5,36.5,30.04,WSW,248,2.6,2.6,68,0.00,,OVC,0.04,VWS V14.00,2013-01-06 16:47:00,
2013-01-06 11:52:00,46.9,36.9,30.04,SW,225,0.0,0.0,68,0.00,,OVC,0.04,VWS V14.00,2013-01-06 16:52:00,
2013-01-06 11:57:00,47.3,36.9,30.04,WNW,292,0.0,0.0,67,0.00,,OVC,0.04,VWS V14.00,2013-01-06 16:57:00,
2013-01-06 12:02:00,47.4,36.6,30.04,West,270,2.4,2.4,66,0.00,,OVC,0.04,VWS V14.00,2013-01-06 17:02:00,
2013-01-06 12:07:00,47.6,36.8,30.03,WNW,292,0.0,0.0,66,0.00,,OVC,0.04,VWS V14.00,2013-01-06 17:07:00,
2013-01-06 12:12:00,47.4,36.2,30.03,SW,225,1.5,1.5,65,0.00,,OVC,0.04,VWS V14.00,2013-01-06 17:12:00,
2013-01-06 12:17:00,47.6,36.4,30.03,West,270,0.0,0.0,65,0.00,,OVC,0.04,VWS V14.00,2013-01-06 17:17:00,
2013-01-06 12:23:00,48.0,36.4,30.03,WSW,248,2.0,2.0,64,0.00,,OVC,0.04,VWS V14.00,2013-01-06 17:23:00,
2013-01-06 12:28:00,48.3,36.7,30.03,SE,135,0.0,0.0,64,0.00,,OVC,0.04,VWS V14.00,2013-01-06 17:28:00,
2013-01-06 12:33:00,48.3,36.3,30.03,WSW,248,5.5,5.5,63,0.00,,OVC,0.04,VWS V14.00,2013-01-06 17:33:00,
2013-01-06 12:38:00,48.3,35.5,30.03,SW,225,0.0,0.0,61,0.00,,OVC,0.04,VWS V14.00,2013-01-06 17:38:00,
2013-01-06 12:43:00,48.0,34.8,30.03,WNW,292,0.0,0.0,60,0.00,,OVC,0.04,VWS V14.00,2013-01-06 17:43:00,
2013-01-06 12:48:00,48.2,35.4,30.02,WNW,292,0.0,0.0,61,0.00,,OVC,0.04,VWS V14.00,2013-01-06 17:48:00,
2013-01-06 12:53:00,48.2,35.0,30.02,WNW,292,3.8,3.8,60,0.00,,OVC,0.04,VWS V14.00,2013-01-06 17:53:00,
2013-01-06 12:58:00,48.0,34.8,30.03,West,270,0.0,0.0,60,0.00,,OVC,0.04,VWS V14.00,2013-01-06 17:58:00,
2013-01-06 13:03:00,48.0,34.8,30.02,West,270,2.0,2.0,60,0.00,,OVC,0.04,VWS V14.00,2013-01-06 18:03:00,
2013-01-06 13:08:00,48.3,34.7,30.02,West,270,0.8,0.8,59,0.00,,OVC,0.04,VWS V14.00,2013-01-06 18:08:00,
2013-01-06 13:13:00,48.2,35.0,30.01,West,270,1.3,1.3,60,0.00,,OVC,0.04,VWS V14.00,2013-01-06 18:13:00,
2013-01-06 13:18:00,48.0,34.4,30.01,WSW,248,3.1,3.1,59,0.00,,OVC,0.04,VWS V14.00,2013-01-06 18:18:00,
2013-01-06 13:23:00,48.2,34.6,30.01,SW,225,0.0,0.0,59,0.00,,OVC,0.04,VWS V14.00,2013-01-06 18:23:00,
2013-01-06 13:28:00,48.2,34.1,30.01,West,270,0.0,0.0,58,0.00,,OVC,0.04,VWS V14.00,2013-01-06 18:28:00,
2013-01-06 13:33:00,48.3,34.2,30.00,SW,225,5.3,5.3,58,0.00,,OVC,0.04,VWS V14.00,2013-01-06 18:33:00,
2013-01-06 13:38:00,48.3,34.2,30.00,WSW,248,3.1,3.1,58,0.00,,OVC,0.04,VWS V14.00,2013-01-06 18:38:00,
2013-01-06 13:43:00,48.2,34.1,30.00,SW,225,0.0,0.0,58,0.00,,OVC,0.04,VWS V14.00,2013-01-06 18:43:00,
2013-01-06 13:48:00,48.0,33.9,30.00,WSW,248,5.8,5.8,58,0.00,,OVC,0.04,VWS V14.00,2013-01-06 18:48:00,
2013-01-06 13:53:00,48.0,33.5,30.00,SW,225,0.6,0.6,57,0.00,,OVC,0.04,VWS V14.00,2013-01-06 18:53:00,
2013-01-06 13:58:00,48.0,33.5,30.00,WSW,248,0.0,0.0,57,0.00,,OVC,0.04,VWS V14.00,2013-01-06 18:58:00,
2013-01-06 14:03:00,48.0,33.5,30.00,NW,315,0.6,0.6,57,0.00,,OVC,0.04,VWS V14.00,2013-01-06 19:03:00,
2013-01-06 14:08:00,48.0,33.5,30.00,WSW,248,0.0,0.0,57,0.00,,OVC,0.04,VWS V14.00,2013-01-06 19:08:00,
2013-01-06 14:13:00,48.0,33.1,30.00,WNW,292,0.0,0.0,56,0.00,,OVC,0.04,VWS V14.00,2013-01-06 19:13:00,
2013-01-06 14:18:00,47.8,32.9,29.99,SW,225,0.0,0.0,56,0.00,,OVC,0.04,VWS V14.00,2013-01-06 19:18:00,
2013-01-06 14:23:00,48.0,33.1,29.99,SW,225,0.0,0.0,56,0.00,,OVC,0.04,VWS V14.00,2013-01-06 19:23:00,
2013-01-06 14:28:00,48.0,33.1,29.99,West,270,2.4,2.4,56,0.00,,OVC,0.04,VWS V14.00,2013-01-06 19:28:00,
2013-01-06 14:33:00,47.8,32.4,30.00,NW,315,0.0,0.0,55,0.00,,OVC,0.04,VWS V14.00,2013-01-06 19:33:00,
2013-01-06 14:38:00,47.8,32.9,30.00,SW,225,3.3,3.3,56,0.00,,OVC,0.04,VWS V14.00,2013-01-06 19:38:00,
2013-01-06 14:48:00,47.4,32.5,29.99,West,270,1.5,1.5,56,0.00,,OVC,0.04,VWS V14.00,2013-01-06 19:48:00,
2013-01-06 14:53:00,47.3,32.4,29.99,SW,225,0.0,0.0,56,0.00,,OVC,0.04,VWS V14.00,2013-01-06 19:53:00,
2013-01-06 14:58:00,47.1,32.2,29.99,SW,225,0.0,0.0,56,0.00,,OVC,0.04,VWS V14.00,2013-01-06 19:58:00,
2013-01-06 15:03:00,47.1,32.2,29.99,WSW,248,4.9,4.9,56,0.00,,OVC,0.04,VWS V14.00,2013-01-06 20:03:00,
2013-01-06 15:08:00,47.1,31.8,29.99,West,270,1.5,1.5,55,0.00,,OVC,0.04,VWS V14.00,2013-01-06 20:08:00,
2013-01-06 15:11:00,47.1,31.8,29.99,SW,225,2.6,2.6,55,0.00,,OVC,0.04,VWS V14.00,2013-01-06 20:11:00,
2013-01-06 15:13:00,46.9,32.0,29.99,WSW,248,3.1,3.1,56,0.00,,OVC,0.04,VWS V14.00,2013-01-06 20:13:00,
2013-01-06 15:18:00,46.7,31.9,29.99,WSW,248,0.0,0.0,56,0.00,,OVC,0.04,VWS V14.00,2013-01-06 20:18:00,
2013-01-06 15:23:00,46.5,31.7,29.99,WSW,248,1.1,1.1,56,0.00,,OVC,0.04,VWS V14.00,2013-01-06 20:23:00,
2013-01-06 15:28:00,46.4,31.6,29.99,WSW,248,0.0,0.0,56,0.00,,OVC,0.04,VWS V14.00,2013-01-06 20:28:00,
2013-01-06 15:33:00,46.2,31.4,29.98,West,270,2.0,2.0,56,0.00,,OVC,0.04,VWS V14.00,2013-01-06 20:33:00,
2013-01-06 15:38:00,46.2,31.4,29.98,WSW,248,3.8,3.8,56,0.00,,OVC,0.04,VWS V14.00,2013-01-06 20:38:00,
2013-01-06 15:43:00,46.0,31.2,29.99,West,270,0.0,0.0,56,0.00,,OVC,0.04,VWS V14.00,2013-01-06 20:43:00,
2013-01-06 15:48:00,45.6,31.3,29.99,West,270,0.0,0.0,57,0.00,,OVC,0.04,VWS V14.00,2013-01-06 20:48:00,
2013-01-06 15:53:00,45.5,31.2,29.99,West,270,3.5,3.5,57,0.00,,OVC,0.04,VWS V14.00,2013-01-06 20:53:00,
2013-01-06 15:58:00,45.3,31.0,29.99,SW,225,2.4,2.4,57,0.00,,OVC,0.04,VWS V14.00,2013-01-06 20:58:00,
2013-01-06 16:01:00,45.1,31.2,29.99,West,270,0.0,0.0,58,0.00,,OVC,0.04,VWS V14.00,2013-01-06 21:01:00,
2013-01-06 16:06:00,44.9,31.0,29.99,SW,225,0.0,0.0,58,0.00,,OVC,0.04,VWS V14.00,2013-01-06 21:06:00,
2013-01-06 16:11:00,44.7,30.9,29.99,WSW,248,0.0,0.0,58,0.00,,OVC,0.04,VWS V14.00,2013-01-06 21:11:00,
2013-01-06 16:16:00,44.4,30.6,29.99,WSW,248,0.0,0.0,58,0.00,,OVC,0.04,VWS V14.00,2013-01-06 21:16:00,
2013-01-06 16:21:00,44.2,30.8,29.99,WSW,248,0.0,0.0,59,0.00,,OVC,0.04,VWS V14.00,2013-01-06 21:21:00,
2013-01-06 16:26:00,43.8,30.4,30.00,SW,225,0.8,0.8,59,0.00,,OVC,0.04,VWS V14.00,2013-01-06 21:26:00,
2013-01-06 16:31:00,43.8,30.4,29.99,SW,225,0.0,0.0,59,0.00,,OVC,0.04,VWS V14.00,2013-01-06 21:31:00,
2013-01-06 16:36:00,43.5,30.1,30.00,SSW,202,2.4,2.4,59,0.00,,OVC,0.04,VWS V14.00,2013-01-06 21:36:00,
2013-01-06 16:41:00,43.1,29.8,30.00,SW,225,0.0,0.0,59,0.00,,OVC,0.04,VWS V14.00,2013-01-06 21:41:00,
2013-01-06 16:46:00,42.6,29.7,30.00,SW,225,0.8,0.8,60,0.00,,OVC,0.04,VWS V14.00,2013-01-06 21:46:00,
2013-01-06 16:51:00,42.4,29.5,30.00,SW,225,0.0,0.0,60,0.00,,OVC,0.04,VWS V14.00,2013-01-06 21:51:00,
2013-01-06 16:56:00,42.0,29.5,30.00,SW,225,0.0,0.0,61,0.00,,OVC,0.04,VWS V14.00,2013-01-06 21:56:00,
2013-01-06 17:01:00,41.9,29.5,30.00,WSW,248,2.0,2.0,61,0.00,,OVC,0.04,VWS V14.00,2013-01-06 22:01:00,
2013-01-06 17:06:00,41.7,29.7,30.00,WSW,248,0.0,0.0,62,0.00,,OVC,0.04,VWS V14.00,2013-01-06 22:06:00,
2013-01-06 17:11:00,41.3,28.9,30.00,WSW,248,0.0,0.0,61,0.00,,OVC,0.04,VWS V14.00,2013-01-06 22:11:00,
2013-01-06 17:16:00,41.1,29.1,30.00,WSW,248,0.0,0.0,62,0.00,,OVC,0.04,VWS V14.00,2013-01-06 22:16:00,
2013-01-06 17:21:00,40.8,28.8,30.01,WSW,248,0.0,0.0,62,0.00,,OVC,0.04,VWS V14.00,2013-01-06 22:21:00,
2013-01-06 17:26:00,40.6,28.6,30.01,WSW,248,0.0,0.0,62,0.00,,OVC,0.04,VWS V14.00,2013-01-06 22:26:00,
2013-01-06 17:31:00,40.2,28.6,30.01,WSW,248,0.0,0.0,63,0.00,,OVC,0.04,VWS V14.00,2013-01-06 22:31:00,
2013-01-06 17:36:00,40.1,28.5,30.01,WSW,248,0.0,0.0,63,0.00,,OVC,0.04,VWS V14.00,2013-01-06 22:36:00,
2013-01-06 17:41:00,39.9,28.7,30.01,North,0,0.0,0.0,64,0.00,,OVC,0.04,VWS V14.00,2013-01-06 22:41:00,
2013-01-06 17:46:00,39.7,28.5,30.01,WSW,248,0.0,0.0,64,0.00,,OVC,0.04,VWS V14.00,2013-01-06 22:46:00,
2013-01-06 17:51:00,39.7,28.5,30.02,WSW,248,0.0,0.0,64,0.00,,OVC,0.04,VWS V14.00,2013-01-06 22:51:00,
2013-01-06 17:56:00,39.5,28.4,30.01,WSW,248,0.0,0.0,64,0.00,,OVC,0.04,VWS V14.00,2013-01-06 22:56:00,
2013-01-06 18:01:00,39.5,28.4,30.02,WSW,248,0.0,0.0,64,0.00,,OVC,0.04,VWS V14.00,2013-01-06 23:01:00,
2013-01-06 18:06:00,39.5,28.4,30.02,SW,225,0.0,0.0,64,0.00,,OVC,0.04,VWS V14.00,2013-01-06 23:06:00,
2013-01-06 18:11:00,39.3,28.5,30.02,SW,225,0.0,0.0,65,0.00,,OVC,0.04,VWS V14.00,2013-01-06 23:11:00,
2013-01-06 18:16:00,39.2,28.4,30.02,SW,225,0.0,0.0,65,0.00,,OVC,0.04,VWS V14.00,2013-01-06 23:16:00,
2013-01-06 18:21:00,38.8,28.1,30.02,SW,225,0.0,0.0,65,0.00,,OVC,0.04,VWS V14.00,2013-01-06 23:21:00,
2013-01-06 18:26:00,38.6,28.2,30.03,SW,225,0.0,0.0,66,0.00,,OVC,0.04,VWS V14.00,2013-01-06 23:26:00,
2013-01-06 18:31:00,38.3,28.0,30.03,WSW,248,0.0,0.0,66,0.00,,OVC,0.04,VWS V14.00,2013-01-06 23:31:00,
2013-01-06 18:36:00,38.1,27.8,30.03,WSW,248,0.0,0.0,66,0.00,,OVC,0.04,VWS V14.00,2013-01-06 23:36:00,
2013-01-06 18:41:00,37.9,27.6,30.02,WSW,248,0.0,0.0,66,0.00,,OVC,0.04,VWS V14.00,2013-01-06 23:41:00,
2013-01-06 18:46:00,37.9,27.6,30.03,WSW,248,0.0,0.0,66,0.00,,OVC,0.04,VWS V14.00,2013-01-06 23:46:00,
2013-01-06 18:51:00,37.7,27.8,30.03,WSW,248,0.0,0.0,67,0.00,,OVC,0.04,VWS V14.00,2013-01-06 23:51:00,
2013-01-06 18:56:00,37.5,27.5,30.03,WSW,248,0.0,0.0,67,0.00,,OVC,0.04,VWS V14.00,2013-01-06 23:56:00,
2013-01-06 19:01:00,37.2,27.3,30.03,WSW,248,0.0,0.0,67,0.00,,OVC,0.04,VWS V14.00,2013-01-07 00:01:00,
2013-01-06 19:06:00,37.2,27.6,30.03,WSW,248,0.0,0.0,68,0.00,,OVC,0.04,VWS V14.00,2013-01-07 00:06:00,
2013-01-06 19:11:00,37.0,27.4,30.03,WSW,248,0.0,0.0,68,0.00,,OVC,0.04,VWS V14.00,2013-01-07 00:11:00,
2013-01-06 19:16:00,36.6,27.4,30.03,WSW,248,0.0,0.0,69,0.00,,OVC,0.04,VWS V14.00,2013-01-07 00:16:00,
2013-01-06 19:21:00,36.5,27.7,30.03,WSW,248,0.0,0.0,70,0.00,,OVC,0.04,VWS V14.00,2013-01-07 00:21:00,
2013-01-06 19:26:00,36.3,27.5,30.03,WSW,248,0.0,0.0,70,0.00,,OVC,0.04,VWS V14.00,2013-01-07 00:26:00,
2013-01-06 19:31:00,36.1,27.6,30.03,WSW,248,0.0,0.0,71,0.00,,OVC,0.04,VWS V14.00,2013-01-07 00:31:00,
2013-01-06 19:36:00,36.1,28.0,30.03,WSW,248,0.0,0.0,72,0.00,,OVC,0.04,VWS V14.00,2013-01-07 00:36:00,
2013-01-06 19:41:00,35.9,28.1,30.03,WSW,248,0.0,0.0,73,0.00,,OVC,0.04,VWS V14.00,2013-01-07 00:41:00,
2013-01-06 19:46:00,35.7,27.9,30.04,WSW,248,0.0,0.0,73,0.00,,OVC,0.04,VWS V14.00,2013-01-07 00:46:00,
2013-01-06 19:51:00,35.7,28.2,30.03,WSW,248,0.0,0.0,74,0.00,,OVC,0.04,VWS V14.00,2013-01-07 00:51:00,
2013-01-06 19:56:00,35.4,28.0,30.03,WSW,248,0.0,0.0,74,0.00,,OVC,0.04,VWS V14.00,2013-01-07 00:56:00,
2013-01-06 20:01:00,35.4,28.3,30.03,WSW,248,0.0,0.0,75,0.00,,OVC,0.04,VWS V14.00,2013-01-07 01:01:00,
2013-01-06 20:06:00,35.7,28.6,30.03,WSW,248,0.0,0.0,75,0.00,,OVC,0.04,VWS V14.00,2013-01-07 01:06:00,
2013-01-06 20:11:00,35.7,28.9,30.03,WSW,248,0.0,0.0,76,0.00,,OVC,0.04,VWS V14.00,2013-01-07 01:11:00,
2013-01-06 20:16:00,35.9,29.1,30.03,WSW,248,0.0,0.0,76,0.00,,OVC,0.04,VWS V14.00,2013-01-07 01:16:00,
2013-01-06 20:21:00,36.1,29.3,30.03,WSW,248,0.0,0.0,76,0.00,,OVC,0.04,VWS V14.00,2013-01-07 01:21:00,
2013-01-06 20:26:00,36.3,29.5,30.03,WSW,248,0.0,0.0,76,0.00,,OVC,0.04,VWS V14.00,2013-01-07 01:26:00,
2013-01-06 20:31:00,36.5,29.7,30.03,WSW,248,0.0,0.0,76,0.00,,OVC,0.04,VWS V14.00,2013-01-07 01:31:00,
2013-01-06 20:36:00,36.6,29.8,30.04,WSW,248,0.0,0.0,76,0.00,,OVC,0.04,VWS V14.00,2013-01-07 01:36:00,
2013-01-06 20:41:00,36.8,30.0,30.04,WSW,248,0.0,0.0,76,0.00,,OVC,0.04,VWS V14.00,2013-01-07 01:41:00,
2013-01-06 20:46:00,37.0,30.1,30.03,WSW,248,0.0,0.0,76,0.00,,OVC,0.04,VWS V14.00,2013-01-07 01:46:00,
2013-01-06 20:51:00,37.2,30.0,30.04,WSW,248,0.0,0.0,75,0.00,,OVC,0.04,VWS V14.00,2013-01-07 01:51:00,
2013-01-06 20:56:00,37.2,30.0,30.04,WSW,248,0.0,0.0,75,0.00,,OVC,0.04,VWS V14.00,2013-01-07 01:56:00,
2013-01-06 21:01:00,37.5,30.0,30.04,WSW,248,0.0,0.0,74,0.00,,OVC,0.04,VWS V14.00,2013-01-07 02:01:00,
2013-01-06 21:06:00,37.5,30.0,30.03,WSW,248,0.0,0.0,74,0.00,,OVC,0.04,VWS V14.00,2013-01-07 02:06:00,
2013-01-06 21:11:00,37.9,30.0,30.04,WSW,248,0.0,0.0,73,0.00,,OVC,0.04,VWS V14.00,2013-01-07 02:11:00,
2013-01-06 21:16:00,37.9,30.0,30.04,WSW,248,0.0,0.0,73,0.00,,OVC,0.04,VWS V14.00,2013-01-07 02:16:00,
2013-01-06 21:21:00,38.1,30.2,30.04,SW,225,0.0,0.0,73,0.00,,OVC,0.04,VWS V14.00,2013-01-07 02:21:00,
2013-01-06 21:26:00,38.3,30.4,30.04,WSW,248,0.0,0.0,73,0.00,,OVC,0.04,VWS V14.00,2013-01-07 02:26:00,
2013-01-06 21:31:00,38.3,30.4,30.03,WSW,248,0.0,0.0,73,0.00,,OVC,0.04,VWS V14.00,2013-01-07 02:31:00,
2013-01-06 21:36:00,38.4,30.2,30.04,SW,225,0.0,0.0,72,0.00,,OVC,0.04,VWS V14.00,2013-01-07 02:36:00,
2013-01-06 21:41:00,38.4,29.8,30.04,SW,225,0.0,0.0,71,0.00,,OVC,0.04,VWS V14.00,2013-01-07 02:41:00,
2013-01-06 21:46:00,38.8,30.2,30.04,SW,225,0.0,0.0,71,0.00,,OVC,0.04,VWS V14.00,2013-01-07 02:46:00,
2013-01-06 21:51:00,38.8,30.2,30.04,SW,225,0.0,0.0,71,0.00,,OVC,0.04,VWS V14.00,2013-01-07 02:51:00,
2013-01-06 21:56:00,38.8,30.2,30.04,SW,225,0.0,0.0,71,0.00,,OVC,0.04,VWS V14.00,2013-01-07 02:56:00,
2013-01-06 22:01:00,38.8,30.2,30.04,SW,225,0.0,0.0,71,0.00,,OVC,0.04,VWS V14.00,2013-01-07 03:01:00,
2013-01-06 22:06:00,39.0,30.4,30.04,WSW,248,0.0,0.0,71,0.00,,OVC,0.04,VWS V14.00,2013-01-07 03:06:00,
2013-01-06 22:11:00,39.0,30.1,30.04,WSW,248,0.0,0.0,70,0.00,,OVC,0.04,VWS V14.00,2013-01-07 03:11:00,
2013-01-06 22:16:00,39.0,30.1,30.05,WSW,248,0.0,0.0,70,0.00,,OVC,0.04,VWS V14.00,2013-01-07 03:16:00,
2013-01-06 22:21:00,39.0,29.7,30.04,WSW,248,0.0,0.0,69,0.00,,OVC,0.04,VWS V14.00,2013-01-07 03:21:00,
2013-01-06 22:26:00,39.0,29.7,30.04,WSW,248,0.0,0.0,69,0.00,,OVC,0.04,VWS V14.00,2013-01-07 03:26:00,
2013-01-06 22:31:00,39.0,29.7,30.04,West,270,0.0,0.0,69,0.00,,OVC,0.04,VWS V14.00,2013-01-07 03:31:00,
2013-01-06 22:36:00,39.0,29.7,30.04,WSW,248,0.0,0.0,69,0.00,,OVC,0.04,VWS V14.00,2013-01-07 03:36:00,
2013-01-06 22:41:00,39.0,29.7,30.04,WSW,248,0.0,0.0,69,0.00,,OVC,0.04,VWS V14.00,2013-01-07 03:41:00,
2013-01-06 22:46:00,38.8,29.5,30.04,WSW,248,0.0,0.0,69,0.00,,OVC,0.04,VWS V14.00,2013-01-07 03:46:00,
2013-01-06 22:51:00,39.0,29.7,30.04,WSW,248,0.0,0.0,69,0.00,,OVC,0.04,VWS V14.00,2013-01-07 03:51:00,
2013-01-06 22:56:00,38.8,29.5,30.05,SW,225,0.0,0.0,69,0.00,,OVC,0.04,VWS V14.00,2013-01-07 03:56:00,
2013-01-06 23:01:00,38.8,29.5,30.05,SW,225,0.0,0.0,69,0.00,,OVC,0.04,VWS V14.00,2013-01-07 04:01:00,
2013-01-06 23:06:00,38.8,29.9,30.04,SW,225,0.0,0.0,70,0.00,,OVC,0.04,VWS V14.00,2013-01-07 04:06:00,
2013-01-06 23:11:00,38.8,29.9,30.05,SW,225,0.0,0.0,70,0.00,,OVC,0.04,VWS V14.00,2013-01-07 04:11:00,
2013-01-06 23:16:00,38.4,29.5,30.05,SW,225,0.0,0.0,70,0.00,,OVC,0.04,VWS V14.00,2013-01-07 04:16:00,
2013-01-06 23:21:00,38.6,30.0,30.05,SW,225,0.0,0.0,71,0.00,,OVC,0.04,VWS V14.00,2013-01-07 04:21:00,
2013-01-06 23:26:00,38.6,30.0,30.05,SW,225,0.0,0.0,71,0.00,,OVC,0.04,VWS V14.00,2013-01-07 04:26:00,
2013-01-06 23:31:00,38.4,29.8,30.05,SW,225,0.0,0.0,71,0.00,,OVC,0.04,VWS V14.00,2013-01-07 04:31:00,
2013-01-06 23:36:00,38.4,29.8,30.06,WSW,248,0.0,0.0,71,0.00,,OVC,0.04,VWS V14.00,2013-01-07 04:36:00,
2013-01-06 23:41:00,38.4,29.8,30.06,West,270,0.0,0.0,71,0.00,,OVC,0.04,VWS V14.00,2013-01-07 04:41:00,
2013-01-06 23:46:00,38.1,29.5,30.05,West,270,0.0,0.0,71,0.00,,OVC,0.04,VWS V14.00,2013-01-07 04:46:00,
2013-01-06 23:51:00,37.9,29.0,30.06,West,270,0.0,0.0,70,0.00,,OVC,0.04,VWS V14.00,2013-01-07 04:51:00,
2013-01-06 23:56:00,37.5,29.0,30.06,West,270,0.0,0.0,71,0.00,,OVC,0.04,VWS V14.00,2013-01-07 04:56:00,